Regional Weather Roundup
Issued by NWS

Home | Current Version | Previous Version | Graphics & Text | Print | Product List | Glossary On
Versions: 1 2 3 4 5 6 7 8 9 10 11 12 13 14 15 16 17 18 19 20 21 22 23 24 25 26 27 28 29 30 31 32 33 34 35 36 37 38 39 40 41 42 43 44 45 46 47 48 49 50
000
ASUS43 KOAX 272002
RWRNE

WEATHER ROUNDUP FOR NEBRASKA
NATIONAL WEATHER SERVICE OMAHA NE
200 PM CST THU NOV 27 2014

NOTES: SATELLITE DATA IS BEING USED TO AUGMENT CLOUD COVER ABOVE
       12000 FEET.
       "FAIR" INDICATES FEW OR NO CLOUDS BELOW 12,000 FEET WITH NO
       SIGNIFICANT WEATHER AND/OR OBSTRUCTIONS TO VISIBILITY.

  * THESE STATIONS DO NOT REPORT WEATHER SUCH AS RAIN...SNOW OR FOG.

NEZ001>004-019>022-054>056-272100-
NEBRASKA PANHANDLE

CITY           SKY/WX    TMP DP  RH WIND       PRES   REMARKS
SCOTTSBLUFF    MOSUNNY   38  29  70 E5        30.03F WCI  34
ALLIANCE       SUNNY     52  31  44 SW10      30.00F
CHADRON        MOSUNNY  N/A N/A N/A N3        29.96F
SIDNEY         PTSUNNY   46  35  65 SW8       30.07F
$$

NEZ057>060-069>072-079>082-272100-
SOUTHWEST NEBRASKA

CITY           SKY/WX    TMP DP  RH WIND       PRES   REMARKS
NORTH PLATTE   SUNNY     47  22  37 S12       30.10F
IMPERIAL       SUNNY     57  30  35 S10       30.08F
MCCOOK         SUNNY     53  25  33 SE12      30.11F
$$

NEZ005>010-023>029-035>040-094-272100-
NORTH CENTRAL NEBRASKA

CITY           SKY/WX    TMP DP  RH WIND       PRES   REMARKS
VALENTINE      PTSUNNY   40  22  48 S15       30.04F WCI  32
BROKEN BOW     SUNNY     41  22  46 S15G24    30.13F
ORD            MOSUNNY   36  18  48 S18G26    30.17F WCI  26
$$

NEZ041-046>049-061>064-073>077-083>087-272100-
SOUTH CENTRAL NEBRASKA

CITY           SKY/WX    TMP DP  RH WIND       PRES   REMARKS
GRAND ISLAND   MOSUNNY   35  16  45 S15       30.25F WCI  25
AURORA         MOSUNNY   34  15  45 S15G22    30.26F WCI  24
HASTINGS       SUNNY     38  17  42 S15G22    30.23F WCI  29
KEARNEY *      SUNNY     37  18  44 SE20      30.21F WCI  27
YORK           MOSUNNY   32  16  51 S15G21    30.28F WCI  22
$$

NEZ011>018-030>034-042>045-272100-
NORTHEAST NEBRASKA

CITY           SKY/WX    TMP DP  RH WIND       PRES   REMARKS
NORFOLK        CLOUDY    22  14  71 SE16      30.28F WCI   8
BLAIR          MOSUNNY   23   7  50 SE8       30.37F WCI  14
COLUMBUS *     MOSUNNY   27  12  54 SE15G22   30.31F WCI  15
TEKAMAH        CLOUDY    19   2  47 SE8       30.41F WCI   9
$$

NEZ050>053-065>068-078-088>093-272100-
SOUTHEAST NEBRASKA

CITY           SKY/WX    TMP DP  RH WIND       PRES   REMARKS
LINCOLN        SUNNY     30  13  49 SE13      30.36F WCI  20
OMAHA EPPLEY   PTSUNNY   21   4  47 SE8       30.42F WCI  11
FALLS CITY     SUNNY     31  11  43 SE8       30.42F WCI  23
$$

NEZ044-045-051>053-067-272100-
OMAHA AREA

CITY           SKY/WX    TMP DP  RH WIND       PRES   REMARKS
OMAHA EPPLEY   PTSUNNY   21   4  47 SE8       30.42F WCI  11
BLAIR          MOSUNNY   23   7  50 SE8       30.37F WCI  14
OFFUTT AFB     MOSUNNY   24   6  46 E9        30.40F WCI  14
$$


USA.gov is the U.S. government's official web portal to all federal, state and local government web resources and services.